Change the Weather History Date:

Tuesday, March 4, 2014

  Actual Average Record
Temperature  
Mean Temperature 19 °F -  
Max Temperature 29 °F 46 °F 61 °F (2011)
Min Temperature 9 °F 31 °F -2 °F (2002)
Degree Days  
Heating Degree Days 46    
Moisture  
Dew Point 9 °F    
Average Humidity 68    
Maximum Humidity 84    
Minimum Humidity 53    
Precipitation  
Precipitation 0.00 in - - ()
Sea Level Pressure  
Sea Level Pressure 30.31 in    
Wind  
Wind Speed 7 mph (SSE)    
Max Wind Speed 14 mph    
Max Gust Speed -    
Visibility 10 miles    
Events      
Averages and records for this station are not official NWS values.
T = Trace of Precipitation, MM = Missing Value Source: NWS Daily Summary

Daily Weather History Graph

Daily Weather History Graph

Search for Another Location

Airport or City:

Trip Planner

Search our weather history database for the weather conditions in past years. The results will help you decide how hot, cold, wet, or windy it might be!

Date:

Astronomy

Mar. 04, 2014 Rise Set
Actual Time 6:24 AM CST 5:50 PM CST
Civil Twilight 5:57 AM CST 6:17 PM CST
Nautical Twilight 5:25 AM CST 6:49 PM CST
Astronomical Twilight 4:54 AM CST 7:21 PM CST
Moon 8:09 AM CST (3/4) 9:58 PM CST (3/4)
Length of Visible Light 12h 20m
Length of Day
11h 25m
Waxing Crescent, 15% of the Moon is Illuminated
Mar 4
Waxing Crescent
Mar 8
First Quarter
Mar 16
Full
Mar 23
Last Quarter
Mar 30
New

Hourly Weather History & Observations

Time (CST) Temp. Windchill Dew Point Humidity Pressure Visibility Wind Dir Wind Speed Gust Speed Precip Events Conditions
12:56 AM 9.1 °F -1.9 °F 0.1 °F 67% 30.42 in 10.0 mi SSE 6.9 mph - N/A   Clear
1:56 AM 9.1 °F 2.6 °F 0.1 °F 67% 30.43 in 10.0 mi South 3.5 mph - N/A   Scattered Clouds
2:56 AM 9.1 °F 2.6 °F 1.0 °F 70% 30.42 in 10.0 mi SSE 3.5 mph - N/A   Overcast
3:56 AM 9.1 °F -0.7 °F 2.1 °F 73% 30.40 in 10.0 mi South 5.8 mph - N/A   Mostly Cloudy
4:56 AM 9.1 °F 0.8 °F 3.0 °F 76% 30.40 in 10.0 mi SSE 4.6 mph - N/A   Mostly Cloudy
5:56 AM 9.1 °F -3.0 °F 3.0 °F 76% 30.38 in 10.0 mi SSE 8.1 mph - N/A   Mostly Cloudy
6:56 AM 11.1 °F -0.6 °F 4.1 °F 73% 30.38 in 10.0 mi South 8.1 mph - N/A   Overcast
7:56 AM 13.1 °F -2.0 °F 5.0 °F 70% 30.36 in 10.0 mi South 13.8 mph - N/A   Mostly Cloudy
8:56 AM 15.1 °F 1.1 °F 7.2 °F 71% 30.35 in 10.0 mi SSW 12.7 mph - N/A   Clear
9:56 AM 18.1 °F 5.6 °F 7.2 °F 62% 30.33 in 10.0 mi SSW 11.5 mph - N/A   Clear
10:56 AM 21.0 °F 8.6 °F 9.1 °F 60% 30.31 in 10.0 mi SW 12.7 mph - N/A   Clear
11:56 AM 23.0 °F 11.7 °F 10.0 °F 58% 30.30 in 10.0 mi SSW 11.5 mph - N/A   Clear
12:56 PM 25.2 °F 16.5 °F 12.0 °F 58% 30.27 in 10.0 mi SSW 8.1 mph - N/A   Clear
1:56 PM 27.1 °F 18.9 °F 13.1 °F 56% 30.25 in 10.0 mi SSW 8.1 mph - N/A   Clear
2:56 PM 28.0 °F 22.8 °F 14.0 °F 56% 30.24 in 10.0 mi South 4.6 mph - N/A   Clear
3:56 PM 29.1 °F 23.0 °F 15.1 °F 56% 30.24 in 10.0 mi SSW 5.8 mph - N/A   Clear
4:56 PM 29.1 °F 24.1 °F 14.0 °F 53% 30.24 in 10.0 mi SSW 4.6 mph - N/A   Clear
5:56 PM 28.0 °F - 14.0 °F 56% 30.23 in 10.0 mi Calm Calm - N/A   Clear
6:56 PM 25.2 °F 17.3 °F 16.2 °F 69% 30.24 in 10.0 mi ENE 6.9 mph - N/A   Clear
7:56 PM 22.1 °F 14.7 °F 16.2 °F 78% 30.24 in 10.0 mi East 5.8 mph - N/A   Clear
8:56 PM 20.1 °F 11.3 °F 15.1 °F 81% 30.25 in 10.0 mi ENE 6.9 mph - N/A   Clear
9:56 PM 19.0 °F 7.5 °F 14.0 °F 81% 30.25 in 10.0 mi ENE 10.4 mph - N/A   Clear
10:56 PM 18.1 °F 7.9 °F 13.1 °F 81% 30.26 in 10.0 mi East 8.1 mph - N/A   Clear
11:56 PM 16.2 °F 9.0 °F 12.0 °F 84% 30.28 in 10.0 mi ENE 4.6 mph - N/A   Clear